Lid_Strength_Index
3 2 2 1 1 1 1 1 1 0 0 0 1 1 1 0 -0 -1 -1 -1 -2 -2 -2 -1 -1 -1 -0 -1 -1 -1 0 0 -0 1 1 -0 -1 -0 -1 -1 -1 -1 -1
4 3 2 2 2 1 1 1 1 0 0 0 0 0 0 -0 -0 -1 -1 -1 -1 -1 -1 -1 -0 -1 -0 -0 -1 -1 0 -0 -0 2 2 3 2 -0 -0 -1 -1 -1 -1
4 4 3 2 2 2 1 1 1 0 0 -0 -0 -0 -0 -0 0 0 0 -1 -1 -1 -1 -1 -1 -1 -1 -0 -1 -1 0 1 -0 0 2 3 4 3 -0 -0 -1 -1 -1
4 3 3 3 2 2 1 1 0 0 0 -0 0 1 1 2 1 0 -0 -0 -1 -1 -1 -1 -1 -1 -1 -1 -1 -1 -1 -0 1 0 -0 -0 1 3 3 0 -1 -1 -0
4 3 3 2 2 1 1 1 1 0 0 0 0 1 1 1 0 0 0 -0 -1 -1 -1 -1 -1 -1 -1 -1 -1 -0 -0 -0 0 0 0 0 0 1 2 3 2 -0 -1
4 3 2 2 2 1 1 1 1 1 0 0 0 1 1 1 1 1 1 1 0 -0 -1 -1 -1 -1 -1 -1 -1 -1 -1 -0 -0 -0 0 1 1 1 2 3 3 2 -0
4 3 3 3 2 2 2 1 1 1 1 1 1 1 1 1 1 1 1 1 1 1 -0 -1 -1 -0 -1 -1 -1 -1 -1 -0 0 0 0 0 0 0 1 2 2 3 1
4 3 3 3 3 2 2 2 2 2 1 1 1 0 0 1 1 0 0 1 0 0 -1 -1 -1 -1 -1 -1 -1 -0 -0 -1 -0 -0 -0 0 0 0 0 1 2 3 2
4 4 3 3 2 2 2 2 2 1 1 1 1 1 0 0 1 0 0 0 -0 -0 -1 -1 -1 -1 -1 -1 -1 -0 -0 -0 -0 -0 -0 0 0 -0 -0 0 1 2 4
4 4 3 3 2 2 2 1 1 2 1 1 1 1 1 0 -0 1 2 -0 -0 -1 -1 -0 -1 -1 -1 -1 -1 -0 -1 -0 -0 -0 -0 -0 -0 -0 -0 0 0 1 2
4 4 3 3 2 2 2 2 2 1 1 1 1 1 1 0 2 1 1 0 -0 -0 -0 -0 -0 -0 -0 -1 -0 -0 -0 0 -0 -0 0 0 -0 0 0 -0 0 1 1
4 3 3 3 3 2 2 2 2 2 1 1 1 1 1 3 1 1 -0 -0 0 -0 -0 -0 -0 -0 -0 -1 -0 0 -0 0 0 0 0 0 0 0 -0 -0 0 1 0
4 4 3 3 3 3 2 2 2 2 1 1 1 1 2 1 2 1 0 0 0 0 -0 -0 0 0 -0 0 -0 -0 0 0 0 0 0 0 0 0 0 0 0 1 0
4 4 4 3 3 3 2 2 2 1 1 1 1 1 1 1 2 1 1 2 1 1 0 0 0 0 0 -0 -0 -0 0 -0 0 -0 -0 -0 -0 0 0 0 0 0 1
4 4 4 4 3 3 3 2 2 1 1 2 2 1 1 1 1 1 1 3 2 1 0 0 0 -0 0 0 -0 -0 0 0 0 -0 -0 -0 -0 0 -0 0 0 0 1
5 4 4 3 3 3 3 2 2 2 1 2 2 1 2 1 2 2 2 2 3 2 1 1 1 1 0 1 1 0 0 0 0 1 -0 -0 -0 -0 0 0 0 0 1
4 4 4 3 3 3 2 2 2 1 2 2 2 1 1 1 2 2 2 2 1 1 1 1 1 1 0 2 2 1 -0 0 0 0 0 0 -0 -0 -0 -0 0 0 0
4 3 3 3 2 2 2 2 2 2 2 2 2 1 1 2 2 2 2 2 1 1 1 1 0 0 0 2 3 2 -0 0 -0 -0 -0 0 0 -0 -0 0 0 0 -0
3 3 2 2 2 2 2 2 2 2 2 2 2 2 1 2 2 2 2 1 1 1 1 0 1 1 0 4 4 3 1 1 1 0 -0 -0 -0 1 2 0 1 1 0
3 3 2 2 2 2 2 2 2 2 3 2 2 1 1 2 2 2 2 1 1 1 1 1 0 1 0 4 4 3 2 2 1 1 1 2 1 3 3 0 1 2 1
3 2 2 3 2 2 2 3 3 3 2 1 1 1 1 2 2 1 1 1 1 1 1 1 1 1 1 1 4 4 2 2 2 2 1 0 4 5 4 4 0 1 1
3 3 3 3 2 2 2 3 3 2 1 1 2 2 1 2 1 1 1 1 1 2 2 2 2 1 0 4 5 5 5 2 1 1 0 1 5 5 4 3 3 3 3
3 3 3 3 2 2 2 3 3 2 1 2 2 2 1 1 1 2 2 2 1 2 2 3 2 2 1 1 6 7 6 4 1 0 3 5 6 5 4 4 4 4 1
3 3 3 3 3 2 2 2 2 1 1 2 2 2 2 2 1 1 1 2 2 2 2 2 2 2 2 1 2 2 2 5 3 5 2 2 2 4 3 2 2 2 2
3 3 3 3 3 2 2 1 1 1 2 2 2 2 2 2 3 5 4 2 1 4 2 2 2 2 2 1 3 3 1 1 3 2 0 1 1 1 0 1 2 2 3
3 3 3 3 3 3 2 1 1 1 2 2 2 2 2 2 3 4 5 12 12 11 11 10 4 2 8 10 9 10 10 9 8 2 1 1 1 1 1 2 3 3 4